Current Version              Previous Version:    01  02  03  04  05  06  07  08  09  10  11  12  13  14  15  16  17  18  19  20  21  22  23  24  25  26  27  28  29  30  
   31  32  33  34  35  36  37  38  39  40  41  42  43  44  45  46  47  48  49  50  51  52  53  54  55  56  57  58  59  60  

[Printable]
667
ASUS44 KEWX 292210
RWRTX
SOUTH TEXAS REGIONAL WEATHER ROUNDUP
NATIONAL WEATHER SERVICE AUSTIN/SAN ANTONIO TX
500 PM CDT FRI AUG 29 2014

NOTE: "FAIR" INDICATED FEW OR NO CLOUDS BELOW 12,000 FEET WITH NO
SIGNIFICANT WEATHER AND/OR OBSTRUCTIONS TO VISIBILITY.

* - THESE STATIONS ARE NOT NWS OR FAA STATIONS...AND ARE NOT SUBJECT
    TO NWS AND FAA QUALITY CONTROL.

TXZ171-172-183>190-292300-
TEXAS HILL COUNTRY AND EDWARDS PLATEAU

CITY           SKY/WX    TMP DP  RH WIND       PRES   REMARKS
JUNCTION       MOSUNNY   94  63  35 VRB6      29.84F HX  95
*LLANO         MOSUNNY   99  63  30 SE7       29.85F HX 100
BURNET         MOSUNNY   95  63  34 VRB3      29.86F HX  96
*HORSESHOE BAY PTSUNNY   95  62  33 E6        29.83S HX  95
*KERRVILLE     MOSUNNY   94  66  40 SE12      29.85F HX  97
*FREDERICKSBRG PTSUNNY   94  60  32 SE6       29.85F HX  94
*ROCKSPRINGS   MOSUNNY   91  64  40 SE5       29.90F HX  93
*BOERNE STAGE  MOSUNNY   97  59  28 SE7       29.84F HX  96
*CASTROVILLE   MOSUNNY   95  62  32 SE9       29.80F HX  96
HONDO          SUNNY     96  67  38 E10       29.81F HX 100
*UVALDE        MOSUNNY   96  67  38 E8        29.79F HX 100
DEL RIO        SUNNY     97  66  36 SE9       29.77F HX 100
LAUGHLIN AFB   MOSUNNY   96  66  36 SE6       29.78F HX  99
CARRIZO SPRGS  MOSUNNY   99  64  32 E7        29.75F HX 101
$$

TXZ173-191>194-202-209-217>225-228-292300-
CENTRAL AND SOUTH CENTRAL TEXAS

CITY           SKY/WX    TMP DP  RH WIND       PRES   REMARKS
GEORGETOWN     MOSUNNY   91  70  49 E9        29.84R HX  97
AUSTIN/BERGSTM PTSUNNY   92  69  47 SE17G29   29.81S HX  97
AUSTIN/MABRY   PTSUNNY   95  67  39 E9        29.82F HX  99
*AUSTIN/EXEC   PTSUNNY   86  72  62 E18G28    29.83S HX  92
*LAGO VISTA    PTSUNNY   94  67  41 E8        29.86S HX  97
SAN MARCOS     PTSUNNY   81  70  69 E18G30    29.83R THUNDER
NEW BRAUNFELS  PTSUNNY   93  68  43 SE24G30   29.80S HX  97
RANDOLPH AFB   LGT RAIN  93  70  46 SE21G28   29.80F HX  99
PT SAN ANTONIO MOSUNNY   98  64  33 E13       29.78F HX 100
SAN ANTONIO    PTSUNNY   97  65  34 E7        29.80F HX  99
STINSON FIELD  PTSUNNY   98  67  36 SE12      29.77F HX 102
*PLEASANTON    MOSUNNY   95  65  37 E7        29.78F HX  98
*LA GRANGE     CLOUDY    90  73  56 SE9G16    29.80F HX  98
*GIDDINGS      CLOUDY    88  69  53 SE12G21   29.86S HX  93
*GONZALES      CLOUDY    86  77  74 SE6       29.80F HX  97
$$

TXZ163>164-176>182-195>201-210>213-226-227-235-292300-
SOUTHEAST TEXAS

CITY           SKY/WX    TMP DP  RH WIND       PRES   REMARKS
COLLEGE STN    CLOUDY    85  70  60 SE5       29.85R THUNDER
*BRYAN         LGT RAIN  78  73  87 CALM      29.86S
*CALDWELL      TSTM      73  72  94 NW16G24   29.93R VSB 1
*CROCKETT        N/A     91  73  55 SE13G21   29.88R HX 100
*BRENHAM       CLOUDY    86  74  66 SE13      29.85F HX  93
HUNTSVILLE     CLOUDY    86  69  56 E6        29.86F HX  90
CONROE         CLOUDY    83  72  69 SE5       29.85F
HOUSTON BUSH   PTSUNNY   86  72  62 SE13      29.83F HX  92
HOUSTON HOBBY  CLOUDY    83  74  74 SE8       29.82F
*HOUSTON SW AP CLOUDY    82  74  77 E8        29.83F
PEARLAND       CLOUDY    82  76  81 SE10      29.84F
HOUSTON HOOKS  CLOUDY    87  70  56 SE8G17    29.83F HX  92
ELLINGTON FLD  CLOUDY    82  79  89 E8        29.85F HX  93
SUGAR LAND     CLOUDY    82  78  88 SE6       29.81F HX  91
*HOUSTON EXEC  CLOUDY    82  75  78 SE7       29.83F
*CLEVELAND MUN CLOUDY    84  76  77 CALM      29.86F HX  93
*WHARTON       PTSUNNY   80  77  90 E6        29.81F
$$

TXZ214>216-236>238-292300-
THE UPPER TEXAS COAST

CITY           SKY/WX    TMP DP  RH WIND       PRES   REMARKS
*ORANGE        CLOUDY    80  72  76 E9        29.89F
PORT ARTHUR    LGT RAIN  80  72  76 SE13      29.88R
GALVESTON      LGT RAIN  78  76  93 SE8       29.84F
ANGLETON       CLOUDY    80  75  84 SE8       29.81F
*BAY CITY      PTSUNNY   86  75  69 SE10      29.80F HX  94
PALACIOS       PTSUNNY   86  76  71 SE16      29.80F HX  96
$$

TXZ229>234-239>247-292300-
TEXAS COASTAL BEND AND RIO GRANDE PLAINS

CITY           SKY/WX    TMP DP  RH WIND       PRES   REMARKS
VICTORIA       PTSUNNY   93  71  48 E16G23    29.80F HX 100
*BEEVILLE      PTSUNNY   90  70  52 E8        29.80S HX  95
ROCKPORT       PTSUNNY   85  75  72 E13       29.80F HX  93
*PORT ARANSAS  PTSUNNY   83  75  77 E8        29.80F HX  91
*PORT LAVACA   PTSUNNY   87  76  70 SE18      29.80F HX  97
*INGLESIDE     PTSUNNY   89  75  62 E10       29.80F HX  98
CORPUS CHRISTI CLOUDY    88  74  63 E14       29.80S HX  96
CORPUS NAS     CLOUDY    87  76  69 E8        29.80F HX  97
*ROBSTOWN      LGT RAIN  86  74  66 SE10      29.80S HX  94
ALICE          CLOUDY    82  78  88 SE7       29.79F HX  91
KINGSVILLE NAS PTSUNNY   88  77  69 SE12      29.79F HX 100
COTULLA        MOSUNNY   99  64  31 E13G20    29.76F HX 101
*FAITH RANCH   MOSUNNY   99  66  34 E8        29.78F HX 102
LAREDO         MOSUNNY  100  67  34 NE16      29.77F HX 104
$$

TXZ248>255-292300-
DEEP SOUTH TEXAS

CITY           SKY/WX    TMP DP  RH WIND       PRES   REMARKS
BROWNSVILLE    PTSUNNY   89  74  60 SE16      29.75F HX  98
PORT ISABEL    PTSUNNY   87  78  74 E18       29.77F HX 100
*SOUTH PADRE     N/A     84  81  89 E8        29.78F HX  98
HARLINGEN      PTSUNNY   89  78  70 E17G24    29.75F HX 103
*HEBBRONVILLE  PTSUNNY   90  72  54 E15G23    29.79S HX  97
MCALLEN        HVY RAIN  75  73  94 W26G40    29.74S VSB 1/2
*WESLACO       PTSUNNY   91  75  60 E15G21    29.74F HX 101
FALFURRIAS     CLOUDY    85  70  61 E12       29.78F HX  90
EDINBURG       TSTM      80  74  82 N6        29.77S
*ZAPATA        CLOUDY    97  65  34 NE12      29.74S HX  99
$$

TXZ213>215-236>238-242>244-246-247-251-254-255-292300-
CMAN STATIONS

STATION/POSITION TIME  TEMP    WIND        PRES    WAVE
                       AIR SEA DIR/SP/G            HT/PER
                 (UTC) (F)     (DEG/KT/KT) (MB)    (FT/S)
SABINE PASS      2200   80 84  130/ 19/ 20 1011.8
SEA RIM ST PARK  2200   75     120/ 16/ 18 1012.7
NORTH JETTY/GLS  2200   78 84  170/  9/ 11   N/A
EAGLE POINT      2200   77 84  150/ 18/ 22 1010.8
MORGANS POINT    2200   82     100/ 10/ 13 1010.5
MISSION/ARANSAS  2100   82     120/  6     1011.0
PORT O`CONNOR    2200          100/ 15/ 18   N/A
PORT ARANSAS     2200   82 85   80/ 11/ 13 1010.0
MALAQUITE BEACH  2200   81 85   90/  9/ 10 1008.7
BAFFIN BAY       2200   81 83  110/  8/ 10 1009.1
PORT ISABEL      2200   83 82   80/ 10/ 13 1008.6
$$

GMZ080-GMZ150>470-292300-
OFFSHORE BUOY REPORTS

STATION/POSITION TIME  TEMP    WIND        PRES    WAVE
                       AIR SEA DIR/SP/G            HT/PER
                 (UTC) (F)     (DEG/KT/KT) (MB)    (FT/S)
20 E GALVESTON   2200   80 86  120/  8/ 10 1011.0    5/ 5
90 E PT ARANSAS  2200   80 86  110/ 12/ 14 1009.8    5/ 8
35 NE PT MANSFLD 2200   83 85   80/  8/ 10 1008.7    3/ 8
200 E PT ISABEL  2200   78 85  140/  6/  8 1009.2    3/ 6
$$